Overview Statistics Trail Chart Weather Telemetry Raw packets
 

This is the latest recevied weather packets stored in our database for station/object KC4GS-13. If no packets are shown the sender has not sent any weather packets the latest 10 day(s).

<< 24 25 26 27 28 29 30 >>
Time Temp. Humidity Pressure Rain* Wind** Luminosity Snow
1788454752 35° C 55% 1019 hPa 0 mm - 171 W/m² -
1788454447 34.44° C 54% 1019 hPa 0 mm - 125 W/m² -
1788454141 34.44° C 55% 1019 hPa 0 mm - 273 W/m² -
1788453837 35° C 54% 1019.1 hPa 0 mm - 157 W/m² -
1788453536 35° C 54% 1019.1 hPa 0 mm - 128 W/m² -
1788453232 35° C 54% 1019.2 hPa 0 mm - 123 W/m² -
1788452928 35° C 55% 1019.4 hPa 0 mm - 165 W/m² -
1788452624 35° C 55% 1019.4 hPa 0 mm - 317 W/m² -
1788452320 34.44° C 56% 1019.6 hPa 0 mm - 152 W/m² -
1788452015 34.44° C 56% 1019.5 hPa 0 mm - 140 W/m² -
1788451711 34.44° C 56% 1019.3 hPa 0 mm - 178 W/m² -
1788451409 33.89° C 57% 1019.8 hPa 0 mm - 375 W/m² -
1788451108 33.89° C 56% 1019.5 hPa 0 mm - 179 W/m² -
1788450804 34.44° C 56% 1019.7 hPa 0 mm - 124 W/m² -
1788450499 34.44° C 58% 1019.5 hPa 0 mm - 185 W/m² -
1788450195 33.89° C 58% 1019.7 hPa 0 mm - 605 W/m² -
1788449890 33.89° C 57% 1019.7 hPa 0 mm - 263 W/m² -
1788449586 33.33° C 58% 1019.9 hPa 0 mm - 542 W/m² -
1788449283 33.33° C 58% 1019.7 hPa 0 mm - 155 W/m² -
1788448978 32.78° C 59% 1019.6 hPa 0 mm - 202 W/m² -
1788448678 33.33° C 59% 1019.9 hPa 0 mm - 176 W/m² -
1788448374 32.78° C 60% 1019.6 hPa 0 mm - 524 W/m² -
1788448073 32.78° C 62% 1019.7 hPa 0 mm - 213 W/m² -
1788447768 32.22° C 62% 1019.7 hPa 0 mm - 222 W/m² -
1788447464 31.67° C 63% 1019.7 hPa 0 mm - 383 W/m² -

* Rain latest hour (hover to see other rain measurements)
** Current wind speed in m/s (hover to see current wind gust speed)